Regional Weather Roundup
Issued by NWS Goodland, KS

Home | Current Version | Previous Version | Text Only | Print | Product List | Glossary Off
Versions: 1 2 3 4 5 6 7 8 9 10 11 12 13 14 15 16 17 18 19 20 21 22 23 24 25 26 27 28 29 30 31 32 33 34 35 36 37 38 39 40 41 42 43 44 45 46 47 48 49 50

000
ASUS43 KGLD 202159
RWRGLD

GOODLAND FORECAST AREA HOURLY WEATHER ROUNDUP
NATIONAL WEATHER SERVICE GOODLAND KS
400 PM MDT MON OCT 20 2014

...OFFICIAL OBSERVATIONS...

CITY           SKY/WX    TMP DP  RH WIND       PRES   REMARKS
GOODLAND KS    SUNNY     75  40  28 S14       30.11S
HILL CITY KS   SUNNY     79  38  22 SE5       30.07S
IMPERIAL NEB   SUNNY     76  39  26 S15       30.06F
MCCOOK NEB     SUNNY     78  38  23 S12       30.07S
AKRON CO       SUNNY     76  32  20 S16       30.08S
BURLINGTON CO  SUNNY     74  37  26 S14       30.12S
LIMON CO       NOT AVBL
$$

...UNOFFICIAL OBSERVATIONS...

CITY           SKY/WX    TMP DP  RH WIND       PRES   REMARKS
COLBY KS       SUNNY     77  43  29 SE7       30.10S
GOVE KS          N/A     76  32  20 MISG        N/A
NORTON KS      SUNNY     79  30  17 NE3       30.06S
SHARON SPRINGS   N/A     76  46  33 N10         N/A
TRENTON NEB      N/A     81  32  17 S9          N/A
KIT CARSON CO    N/A     72  41  32 N10G17      N/A
YUMA CO          N/A     76  33  21 S20         N/A
$$


USA.gov is the U.S. government's official web portal to all federal, state and local government web resources and services.